Weather History for KMHE - April, 2014

Change the Weather History Date:

Sunday, April 27, 2014

  Actual Average Record
Temperature  
Mean Temperature 55 °F 53 °F  
Max Temperature 61 °F 66 °F 89 °F (1952)
Min Temperature 48 °F 40 °F 19 °F (1909)
Degree Days  
Heating Degree Days 10 12  
Month to date heating degree days 468 484  
Since 1 July heating degree days 7464 6964  
Cooling Degree Days 0 0  
Month to date cooling degree days 0 0  
Year to date cooling degree days 0 0  
Growing Degree Days 4 (Base 50)    
Moisture  
Dew Point 44 °F    
Average Humidity 72    
Maximum Humidity 89    
Minimum Humidity 55    
Precipitation  
Precipitation T in 0.10 in 1.15 in (1971)
Month to date precipitation 0.14 1.88  
Year to date precipitation 1.68 3.50  
Snow  
Snow 0.00 in - 12.00 in (1907)
Month to date snowfall T  
Since 1 July snowfall 30.8  
Snow Depth 0.00 in    
Sea Level Pressure  
Sea Level Pressure 29.37 in    
Wind  
Wind Speed 25 mph (ESE)    
Max Wind Speed 39 mph    
Max Gust Speed 48 mph    
Visibility 10 miles    
Events Rain , Thunderstorm    
T = Trace of Precipitation, MM = Missing Value Source: NWS Daily Summary

Daily Weather History Graph

Daily Weather History Graph

Search for Another Location

Airport or City:

Trip Planner

Search our weather history database for the weather conditions in past years. The results will help you decide how hot, cold, wet, or windy it might be!

Date:

Astronomy

Apr. 27, 2014 Rise Set
Actual Time 6:30 AM CDT 8:30 PM CDT
Civil Twilight 5:58 AM CDT 9:01 PM CDT
Nautical Twilight 5:20 AM CDT 9:39 PM CDT
Astronomical Twilight 4:39 AM CDT 10:21 PM CDT
Moon 5:35 AM CDT (4/27) 7:02 PM CDT (4/27)
Length of Visible Light 15h 02m
Length of Day
14h 00m
Waning Crescent, 3% of the Moon is Illuminated
Apr 27
Waning Crescent
Apr 29
New
May 6
First Quarter
May 14
Full
May 21
Last Quarter

Hourly Weather History & Observations

Time (CDT) Temp. Dew Point Humidity Pressure Visibility Wind Dir Wind Speed Gust Speed Precip Events Conditions
12:53 AM 55.9 °F 39.0 °F 53% 29.48 in 10.0 mi ESE 26.5 mph 40.3 mph 0.00 in Rain Light Rain
1:47 AM 55.4 °F 39.2 °F 54% 29.44 in 10.0 mi ESE 31.1 mph 48.3 mph 0.00 in Rain , Thunderstorm Light Thunderstorms and Rain
1:53 AM 55.0 °F 39.9 °F 57% 29.42 in 10.0 mi ESE 33.4 mph 48.3 mph 0.00 in Rain , Thunderstorm Light Thunderstorms and Rain
2:09 AM 55.0 °F 39.9 °F 57% 29.42 in 10.0 mi ESE 34.5 mph 44.9 mph 0.00 in Rain , Thunderstorm Light Rain
2:19 AM 55.0 °F 39.9 °F 57% 29.41 in 10.0 mi ESE 31.1 mph 42.6 mph 0.00 in Rain Light Rain
2:53 AM 54.0 °F 39.0 °F 57% 29.38 in 10.0 mi ESE 29.9 mph 44.9 mph 0.00 in Rain Light Rain
3:53 AM 52.0 °F 39.0 °F 61% 29.38 in 10.0 mi ESE 26.5 mph 35.7 mph 0.00 in Rain Light Rain
4:53 AM 52.0 °F 39.9 °F 63% 29.37 in 10.0 mi ESE 33.4 mph 41.4 mph 0.00 in Rain Light Rain
5:53 AM 51.1 °F 39.9 °F 66% 29.39 in 10.0 mi East 23.0 mph 34.5 mph 0.00 in Rain Light Rain
6:53 AM 48.9 °F 39.9 °F 71% 29.39 in 10.0 mi East 29.9 mph 36.8 mph 0.00 in   Overcast
7:53 AM 48.0 °F 37.0 °F 66% 29.41 in 10.0 mi East 27.6 mph 40.3 mph N/A   Overcast
8:53 AM 48.9 °F 37.9 °F 66% 29.42 in 10.0 mi East 25.3 mph 36.8 mph N/A   Overcast
9:53 AM 51.1 °F 39.0 °F 63% 29.41 in 10.0 mi ESE 25.3 mph 39.1 mph N/A   Overcast
11:53 AM 55.0 °F 42.1 °F 62% 29.41 in 10.0 mi ESE 25.3 mph 40.3 mph N/A   Overcast
12:53 PM 59.0 °F 44.1 °F 58% 29.40 in 10.0 mi ESE 26.5 mph 38.0 mph N/A   Mostly Cloudy
1:53 PM 60.1 °F 45.0 °F 57% 29.35 in 10.0 mi East 21.9 mph 32.2 mph N/A   Clear
2:33 PM 57.0 °F 46.0 °F 67% 29.35 in 10.0 mi East 27.6 mph 38.0 mph N/A   Mostly Cloudy
3:23 PM 53.1 °F 45.0 °F 74% 29.33 in 10.0 mi East 24.2 mph 35.7 mph N/A   Overcast
3:53 PM 55.0 °F 46.9 °F 74% 29.33 in 10.0 mi East 21.9 mph 29.9 mph N/A   Mostly Cloudy
4:16 PM 57.0 °F 46.9 °F 69% 29.33 in 10.0 mi East 26.5 mph 39.1 mph N/A   Partly Cloudy
4:46 PM 54.0 °F 46.9 °F 77% 29.33 in 10.0 mi East 26.5 mph 35.7 mph N/A   Mostly Cloudy
4:53 PM 54.0 °F 46.9 °F 77% 29.33 in 10.0 mi East 27.6 mph 35.7 mph N/A   Mostly Cloudy
5:10 PM 53.1 °F 46.9 °F 80% 29.33 in 10.0 mi East 25.3 mph 35.7 mph N/A   Overcast
5:53 PM 52.0 °F 46.0 °F 80% 29.34 in 10.0 mi East 21.9 mph 28.8 mph N/A   Overcast
6:41 PM 54.0 °F 46.9 °F 77% 29.34 in 10.0 mi East 19.6 mph - N/A   Overcast
6:53 PM 55.0 °F 48.0 °F 77% 29.35 in 10.0 mi East 24.2 mph 31.1 mph N/A   Overcast
7:13 PM 53.1 °F 48.0 °F 83% 29.35 in 10.0 mi East 21.9 mph 32.2 mph N/A   Overcast
7:53 PM 54.0 °F 48.9 °F 83% 29.34 in 10.0 mi East 23.0 mph 27.6 mph N/A   Overcast
8:27 PM 54.0 °F 48.9 °F 83% 29.32 in 10.0 mi East 23.0 mph - N/A   Overcast
9:18 PM 54.0 °F 48.9 °F 83% 29.33 in 10.0 mi East 21.9 mph 28.8 mph N/A   Overcast
9:53 PM 55.0 °F 48.9 °F 80% 29.34 in 10.0 mi ESE 24.2 mph 32.2 mph N/A   Overcast
10:53 PM 54.0 °F 48.0 °F 80% 29.33 in 10.0 mi ESE 20.7 mph 33.4 mph N/A   Overcast